NOAA 16 DEB, 42394

Orbit data source: Space-Track

NOAA 16 DEB, 42394 is space debris in SSO originally from a launch on Thu, 21 Sep 2000 UTC launched from the Air Force Western Test Range (AFWTR). Debris objects in space refer to the collection of defunct objects orbiting the Earth. Examples of debris include non-operational satellites, rocket bodies, and fragments generated from explosions, collisions, or faulty payload assembly.

Loading next visibility...
Identifier
42394, 2000-055SN
Orbit
SSO
Country
Flag of USUS
Related business
Manufacturer
Unknown
Mission
Spacecraft
Bus & Motor
Unknown
Mass
Unknown
Launch date (UTC)
2000-09-21 (26 years ago)
Launch vehicle
Unknown
Launch site
Air Force Western Test Range (AFWTR)
Object type
Payload
Rocket body
Debris
Shape & HBR
Unknown shape, 0.1 m
Radar Cross Section
Medium (>0.1 m² and <1 m²)

Expand to show TLE details & history
Last TLE update: 1 day ago

TLE from 1 day ago
0 NOAA 16 DEB
1 42394U 00055SN  26228.08988494  .00004270  00000-0  90507-3 0  9999
2 42394  98.9675  94.1721 0030494 268.8771  90.8933 14.59500243544346
Epoch: 2026-08-16T02:09Z
TLE epoch observation values (Epoch: 2026-08-16T02:09:26.058Z)
Latitude
-0.00001°
Longitude
97.32212°
Altitude
698.15 km
Speed
7.507 km/s
True Right ascension
06h 16m 41s
True Declination
0° 00' 00"
Sunlit
Object was in daylight at epoch
Visualization orbit readout
Latitude
Unknown
Longitude
Unknown
Altitude
Unknown
Speed
Unknown
Apparent Right ascension
Unknown
Apparent Declination
Unknown
Sunlit
N/A
Visualization observer readout
Local Sidereal Time
17:09:39
Azimuth
Unknown
Elevation
Unknown
Doppler factor
Unknown
Orbital elements
Apogee altitude
713.466 km
Perigee altitude
670.347 km
Semi-major axis
7,070.044 km
Eccentricity
0.00305
Inclination
98.9675°
RAAN
94.1721°
Arg. of periapsis
268.8771°
True anomaly
91.24267°
Mean anomaly
90.8933°
Eccentric anomaly
91.06799°
Mean motion
3.65098 °/min
Orbital period
98.6 mins
BSTAR
0.00090507
Loading maneuver chart data...
Computing Atmospheric mass density...
Loading historical data...
Loading historical data...
Loading historical data...
Loading historical data...
Loading historical data...
Loading historical data...
Loading historical data...

Documentation

Showing up to 5 results
|